Location: ????????
(55.3155°N, 39.2900°E)
Time: 08:30:31
(UTC+00:00)

Thor Agena Rocket - Pass Details

Date: 14 April 2024
Orbit: 757 x 805 km, 99.1° (Epoch: 19 May)

Event Time Altitude Azimuth Distance (km) Brightness Sun altitude
Rises 01:15:37 0° 17° (NNE) 3,235 7.6 -9.2°
Reaches altitude 10° 01:17:56 10° 19° (NNE) 2,302 6.8 -8.9°
Maximum altitude 01:23:00 80° 106° (ESE) 777 3.6 -8.3°
Drops below altitude 10° 01:28:03 10° 194° (SSW) 2,286 5.6 -7.7°
Sets 01:30:20 0° 196° (SSW) 3,211 6.3 -7.4°
